(25527) = 1988 BE1 = 1999 XM117

Discovered at Catalina on 1999-12-05 by CSS.

Orbit

Orbit type: Main Belt

Note: WebGL enabled browser required.

epoch2023-09-13.0
epoch JD2460200.5
perihelion date2021-04-07.66034
perihelion JD2459312.16034
argument of perihelion (°)134.58880
ascending node (°)358.08000
inclination (°)4.21571
eccentricity0.1454992
perihelion distance (AU)2.2000571
Tisserand w.r.t. Jupiter3.4
ΔV w.r.t. Earth (km/sec)9.4
semimajor axis (AU)2.5746694
mean anomaly (°)211.93402
mean daily motion (°/day)0.23857320
aphelion distance (AU)2.949
period (years)4.13
P-vector [x]-0.67782401
P-vector [y]0.65201821
P-vector [z]0.33974529
Q-vector [x]-0.73522007
Q-vector [y]-0.59956270
Q-vector [z]-0.31618985
absolute magnitude14.7
phase slope0.15
uncertainty0
referenceMPEC 2024-A34
observations used1905
oppositions19
arc length (days)13075
first opposition used1988
last opposition used2023
residual rms (arc-secs)0.62
perturbers coarse indicatorM-v
perturbers precise indicator003Ek
first observation date used1988-01-21.0
last observation date used2023-11-09.0
computer nameMPCLINUX
JD of orbit computation2456465.525340
perihelion JD uncertainty (days)9.7323E-05
argument of perihelion uncertainty (°)5.4584E-05
ascending node uncertainty (°)4.7236E-05
inclination uncertainty (°)6.0679E-06
eccentricity uncertainty 4.4056E-08
perihelion distance uncertainty (AU)1.1366E-07
Minimum Orbit Intersection Distances (in AU)
for orbit epoch: 2460200.5, reference: E2024-A34
Mercury1.85916
Venus1.48161
Earth1.2153
Mars0.54326
Jupiter2.08787
Saturn6.67127
Uranus16.1665
Neptune27.0707

Observations

1952 total observations over interval: 1988 01 21.92292 – 2023 11 09.137818
These data are available for download (format description).

Date (UT) J2000 RA J2000 Dec Magn Location Ref
1988 01 21.92292 07 21 36.87 +28 59 56.8 17.5   511 – Haute Provence MPC 12903
1988 01 21.93750 07 21 36.02 +28 59 57.0   511 – Haute Provence MPC 12903
1988 01 21.95139 07 21 35.28 +28 59 58.4   511 – Haute Provence MPC 12903
1998 08 17.24664 21 19 45.55 -19 53 02.7 19.4   704 – Lincoln Laboratory ETS, New Mexico MPS 26602
1998 08 17.26753 21 19 44.32 -19 53 10.0 19.4   704 – Lincoln Laboratory ETS, New Mexico MPS 26602
1998 08 17.28857 21 19 43.31 -19 53 11.3 19.3   704 – Lincoln Laboratory ETS, New Mexico MPS 26602
1998 08 17.30951 21 19 41.89 -19 53 15.6 18.8   704 – Lincoln Laboratory ETS, New Mexico MPS 26602
1998 08 17.33049 21 19 40.88 -19 53 20.0 18.9   704 – Lincoln Laboratory ETS, New Mexico MPS 26602
1999 10 12.27942 03 43 43.75 +24 26 21.3 19.3   704 – Lincoln Laboratory ETS, New Mexico MPS 12126
1999 10 12.29353 03 43 43.42 +24 26 22.1 19.7   704 – Lincoln Laboratory ETS, New Mexico MPS 12126
1999 10 12.32258 03 43 42.60 +24 26 23.5 19.6   704 – Lincoln Laboratory ETS, New Mexico MPS 12126
1999 10 12.33711 03 43 42.22 +24 26 26.3 19.0   704 – Lincoln Laboratory ETS, New Mexico MPS 12126
1999 10 13.34894 03 43 17.69 +24 27 48.9 19.1   704 – Lincoln Laboratory ETS, New Mexico MPS 12126
1999 10 13.36547 03 43 17.20 +24 27 48.9 19.2   704 – Lincoln Laboratory ETS, New Mexico MPS 12126
1999 10 13.38244 03 43 16.71 +24 27 50.1 18.9   704 – Lincoln Laboratory ETS, New Mexico MPS 12126
1999 10 13.39832 03 43 16.28 +24 27 52.0 19.1   704 – Lincoln Laboratory ETS, New Mexico MPS 12126
1999 10 15.32554 03 42 24.28 +24 30 10.1 18.0   704 – Lincoln Laboratory ETS, New Mexico MPS 12126
1999 10 15.35652 03 42 23.37 +24 30 12.6 19.3   704 – Lincoln Laboratory ETS, New Mexico MPS 12126
1999 10 15.37200 03 42 22.80 +24 30 13.2 19.6   704 – Lincoln Laboratory ETS, New Mexico MPS 12126
1999 10 15.38742 03 42 22.32 +24 30 14.7 19.2   704 – Lincoln Laboratory ETS, New Mexico MPS 12126
1999 11 03.31991 03 28 24.72 +24 29 13.0 17.8   704 – Lincoln Laboratory ETS, New Mexico MPS 10056
1999 11 03.33605 03 28 23.73 +24 29 11.4 18.0   704 – Lincoln Laboratory ETS, New Mexico MPS 10056
1999 11 03.35215 03 28 22.75 +24 29 10.3 18.1   704 – Lincoln Laboratory ETS, New Mexico MPS 10056
1999 11 03.36821 03 28 21.80 +24 29 08.7 17.9   704 – Lincoln Laboratory ETS, New Mexico MPS 10056
1999 11 03.38429 03 28 20.86 +24 29 07.5 18.0   704 – Lincoln Laboratory ETS, New Mexico MPS 10056
1999 11 04.35484 03 27 24.76 +24 27 51.2 16.8 R 703 – Catalina Sky Survey MPS 10056
1999 11 04.37155 03 27 24.04 +24 27 49.5 17.6 R 703 – Catalina Sky Survey MPS 10056
1999 11 04.38827 03 27 22.97 +24 27 47.3 17.6 R 703 – Catalina Sky Survey MPS 10056
1999 11 04.41697 03 27 21.24 +24 27 45.0 18.4 R 703 – Catalina Sky Survey MPS 10056
1999 11 05.27610 03 26 31.19 +24 26 30.4 18.2 R 699 – Lowell Observatory-LONEOS MPS 12126
1999 11 05.30415 03 26 29.55 +24 26 27.3   699 – Lowell Observatory-LONEOS MPS 12126
1999 11 05.31736 03 26 28.64 +24 26 27.0 18.1   704 – Lincoln Laboratory ETS, New Mexico MPS 9001
1999 11 05.33216 03 26 27.77 +24 26 25.3   699 – Lowell Observatory-LONEOS MPS 12126
1999 11 05.33406 03 26 27.63 +24 26 25.0 17.7   704 – Lincoln Laboratory ETS, New Mexico MPS 9001
1999 11 05.35072 03 26 26.66 +24 26 23.6 17.6   704 – Lincoln Laboratory ETS, New Mexico MPS 9001
1999 11 05.36742 03 26 25.63 +24 26 21.8 17.3   704 – Lincoln Laboratory ETS, New Mexico MPS 9001
1999 11 05.38410 03 26 24.55 +24 26 20.4 17.5   704 – Lincoln Laboratory ETS, New Mexico MPS 9001
1999 11 06.23414 03 25 34.43 +24 24 59.8 18.0   704 – Lincoln Laboratory ETS, New Mexico MPS 12126
1999 11 06.25042 03 25 33.42 +24 24 58.3 18.2   704 – Lincoln Laboratory ETS, New Mexico MPS 12126
1999 11 06.26678 03 25 32.42 +24 24 57.0 17.9   704 – Lincoln Laboratory ETS, New Mexico MPS 12126
1999 11 06.28314 03 25 31.46 +24 24 55.3 18.2   704 – Lincoln Laboratory ETS, New Mexico MPS 12126
1999 11 06.29945 03 25 30.42 +24 24 54.1 18.8   704 – Lincoln Laboratory ETS, New Mexico MPS 12126
1999 11 09.25609 03 22 30.56 +24 19 30.7 17.6 R 703 – Catalina Sky Survey MPS 9001
1999 11 09.26833 03 22 29.80 +24 19 29.2 17.6 R 703 – Catalina Sky Survey MPS 9001
1999 11 09.28057 03 22 28.98 +24 19 27.8 18.0 R 703 – Catalina Sky Survey MPS 9001
1999 11 09.29281 03 22 28.20 +24 19 26.4 18.2 R 703 – Catalina Sky Survey MPS 9001
1999 11 12.21848 03 19 25.62 +24 13 03.0 17.5 R 699 – Lowell Observatory-LONEOS MPS 9001
1999 11 12.24905 03 19 23.62 +24 12 58.8   699 – Lowell Observatory-LONEOS MPS 9001
1999 11 12.27960 03 19 21.68 +24 12 54.6   699 – Lowell Observatory-LONEOS MPS 9001
1999 11 13.32060 03 18 15.84 +24 10 25.7 17.5 R 703 – Catalina Sky Survey MPS 9001
1999 11 13.33295 03 18 15.00 +24 10 24.0 17.5 R 703 – Catalina Sky Survey MPS 9001
1999 11 13.34529 03 18 14.18 +24 10 22.1 17.8 R 703 – Catalina Sky Survey MPS 9001
1999 11 13.35756 03 18 13.34 +24 10 20.2 17.9 R 703 – Catalina Sky Survey MPS 9001
1999 11 16.21964 03 15 12.17 +24 02 51.7 17.5   704 – Lincoln Laboratory ETS, New Mexico MPS 9001
1999 11 16.23391 03 15 11.18 +24 02 49.5 17.6   704 – Lincoln Laboratory ETS, New Mexico MPS 9001
1999 11 16.24816 03 15 10.24 +24 02 47.2 17.6   704 – Lincoln Laboratory ETS, New Mexico MPS 9001
1999 11 16.26240 03 15 09.34 +24 02 44.6 17.2   704 – Lincoln Laboratory ETS, New Mexico MPS 9001
1999 11 16.27669 03 15 08.39 +24 02 42.8 17.5   704 – Lincoln Laboratory ETS, New Mexico MPS 9001
1999 12 05.14269 02 56 54.61 +23 00 22.2 17.8 R 703 – Catalina Sky Survey MPS 8068
1999 12 05.15501 02 56 54.02 +23 00 19.8 18.0 R 703 – Catalina Sky Survey MPS 8068
1999 12 05.16736 02 56 53.38 +23 00 17.4 17.8 R 703 – Catalina Sky Survey MPS 8068
1999 12 05.17974 02 56 52.75 +23 00 14.9 17.6 R 703 – Catalina Sky Survey MPS 8069
1999 12 08.25848 02 54 31.83 +22 49 35.1 17.9   704 – Lincoln Laboratory ETS, New Mexico MPS 10056
1999 12 08.27089 02 54 31.31 +22 49 32.4 18.3   704 – Lincoln Laboratory ETS, New Mexico MPS 10056
1999 12 08.28332 02 54 30.73 +22 49 29.7 18.4   704 – Lincoln Laboratory ETS, New Mexico MPS 10056
1999 12 08.29568 02 54 30.20 +22 49 27.3 18.6   704 – Lincoln Laboratory ETS, New Mexico MPS 10056
1999 12 08.30807 02 54 29.63 +22 49 24.9 18.4   704 – Lincoln Laboratory ETS, New Mexico MPS 10056
1999 12 13.17773 02 51 19.95 +22 33 24.8 18.4 R 703 – Catalina Sky Survey MPS 8069
1999 12 13.18992 02 51 19.47 +22 33 22.9 17.7 R 703 – Catalina Sky Survey MPS 8069
1999 12 13.20212 02 51 19.04 +22 33 20.5 17.6 R 703 – Catalina Sky Survey MPS 8069
1999 12 13.21430 02 51 18.58 +22 33 18.7 17.7 R 703 – Catalina Sky Survey MPS 8069
1999 12 15.07117 02 50 17.62 +22 27 36.4 18.2   704 – Lincoln Laboratory ETS, New Mexico MPS 9001
1999 12 15.10141 02 50 16.61 +22 27 29.8 19.4   704 – Lincoln Laboratory ETS, New Mexico MPS 9001
1999 12 15.13165 02 50 15.69 +22 27 24.7 18.3   704 – Lincoln Laboratory ETS, New Mexico MPS 9001
2000 01 31.08875 03 00 47.31 +22 07 54.0 19.6   704 – Lincoln Laboratory ETS, New Mexico MPS 10056
2000 01 31.11813 03 00 48.85 +22 07 59.4 19.9   704 – Lincoln Laboratory ETS, New Mexico MPS 10056
2000 01 31.13286 03 00 49.66 +22 08 00.3 20.2   704 – Lincoln Laboratory ETS, New Mexico MPS 10056
2000 01 31.14758 03 00 50.39 +22 08 01.4 19.5   704 – Lincoln Laboratory ETS, New Mexico MPS 10056
2000 03 04.10354 03 41 36.07 +23 52 16.3 18.2   704 – Lincoln Laboratory ETS, New Mexico MPS 10888
2000 03 04.11670 03 41 37.26 +23 52 18.7 19.2   704 – Lincoln Laboratory ETS, New Mexico MPS 10888
2000 03 04.12988 03 41 38.46 +23 52 21.3 18.8   704 – Lincoln Laboratory ETS, New Mexico MPS 10888
2000 03 04.14305 03 41 39.66 +23 52 24.6 19.1   704 – Lincoln Laboratory ETS, New Mexico MPS 10888
2000 03 04.15624 03 41 40.84 +23 52 27.1 18.5   704 – Lincoln Laboratory ETS, New Mexico MPS 10888
2001 01 26.48044 13 54 26.15 -12 25 08.0 18.8   704 – Lincoln Laboratory ETS, New Mexico MPS 26602
2001 01 26.49591 13 54 26.99 -12 25 14.1 18.8   704 – Lincoln Laboratory ETS, New Mexico MPS 26602
2001 01 26.52669 13 54 28.66 -12 25 26.0 19.0   704 – Lincoln Laboratory ETS, New Mexico MPS 26602
2001 03 18.37340 14 07 09.06 -15 31 21.2 17.6   704 – Lincoln Laboratory ETS, New Mexico MPS 27740
